Dalhart, TX

12:05 AM CDT on September 22, 2017 (GMT -0500)
Dalhart Municipal

Weather History for KDHT - March, 2013

Change the Weather History Date:

Thursday, March 21, 2013

  Actual Average Record
Temperature  
Mean Temperature 60 °F 47 °F  
Max Temperature 79 °F 63 °F 88 °F (1995)
Min Temperature 41 °F 31 °F 10 °F (1989)
Degree Days  
Heating Degree Days 5 18  
Month to date heating degree days 347 442  
Since 1 July heating degree days 3672 4085  
Cooling Degree Days 0 0  
Month to date cooling degree days 0 0  
Year to date cooling degree days 0 0  
Growing Degree Days 8 (Base 50)    
Moisture  
Dew Point 28 °F    
Average Humidity 39    
Maximum Humidity 67    
Minimum Humidity 10    
Precipitation  
Precipitation 0.00 in 0.04 in 0.75 in (1979)
Month to date precipitation 0.05 0.73  
Year to date precipitation 0.85 1.65  
Snow  
Snow 0.00 in 0.10 in T in (1983)
Month to date snowfall 0.3 2.8  
Since 1 July snowfall 18.6 16.3  
Snow Depth 0.00 in    
Sea Level Pressure  
Sea Level Pressure 29.53 in    
Wind  
Wind Speed 12 mph (WNW)    
Max Wind Speed 35 mph    
Max Gust Speed 43 mph    
Visibility 10 miles    
Events      
T = Trace of Precipitation, MM = Missing Value Source: NWS Daily Summary

Daily Weather History Graph

Daily Weather History Graph

Search for Another Location

Airport or City:

Trip Planner

Search our weather history database for the weather conditions in past years. The results will help you decide how hot, cold, wet, or windy it might be!

Date:

Astronomy

Mar. 21, 2013 Rise Set
Actual Time 7:51 AM CDT 8:03 PM CDT
Civil Twilight 7:26 AM CDT 8:28 PM CDT
Nautical Twilight 6:56 AM CDT 8:58 PM CDT
Astronomical Twilight 6:26 AM CDT 9:29 PM CDT
Moon 2:43 PM CDT (3/21) 4:06 AM CDT (3/21)
Length of Visible Light 13h 02m
Length of Day
12h 11m
Waxing Gibbous, 69% of the Moon is Illuminated
Mar 21
Waxing Gibbous
Mar 27
Full
Apr 2
Last Quarter
Apr 10
New
Apr 18
First Quarter

Hourly Weather History & Observations

Time (CDT) Temp. Windchill Dew Point Humidity Pressure Visibility Wind Dir Wind Speed Gust Speed Precip Events Conditions
12:53 AM 50.0 °F - 26.1 °F 39% 29.73 in 10.0 mi South 11.5 mph - N/A   Clear
1:53 AM 45.0 °F 41.8 °F 26.1 °F 48% 29.70 in 10.0 mi SSW 5.8 mph - N/A   Clear
2:53 AM 46.0 °F 41.9 °F 28.9 °F 51% 29.67 in 10.0 mi SW 8.1 mph - N/A   Clear
3:53 AM 48.0 °F - 32.0 °F 54% 29.62 in 10.0 mi SW 11.5 mph - N/A   Clear
4:53 AM 46.9 °F - 32.0 °F 56% 29.60 in 10.0 mi SW 8.1 mph - N/A   Clear
5:53 AM 43.0 °F 38.8 °F 32.0 °F 65% 29.59 in 10.0 mi SW 6.9 mph - N/A   Clear
6:53 AM 42.1 °F - 30.9 °F 65% 29.59 in 10.0 mi Calm Calm - N/A   Clear
7:53 AM 46.0 °F 40.2 °F 30.0 °F 54% 29.58 in 10.0 mi WNW 12.7 mph - N/A   Clear
8:53 AM 48.0 °F - 30.0 °F 50% 29.57 in 10.0 mi WNW 8.1 mph - N/A   Clear
9:53 AM 57.0 °F - 28.9 °F 34% 29.55 in 10.0 mi WNW 9.2 mph - N/A   Clear
10:53 AM 64.0 °F - 27.0 °F 25% 29.53 in 10.0 mi North 6.9 mph - N/A   Clear
11:53 AM 66.9 °F - 25.0 °F 21% 29.50 in 10.0 mi WNW 5.8 mph - N/A   Clear
12:53 PM 69.1 °F - 26.1 °F 20% 29.47 in 10.0 mi WNW 10.4 mph - N/A   Clear
1:53 PM 72.0 °F - 24.1 °F 17% 29.45 in 10.0 mi WSW 12.7 mph 17.3 mph N/A   Clear
2:53 PM 73.0 °F - 23.0 °F 15% 29.38 in 10.0 mi SW 10.4 mph 23.0 mph N/A   Partly Cloudy
3:53 PM 75.9 °F - 15.1 °F 10% 29.33 in 10.0 mi WSW 21.9 mph 32.2 mph N/A   Clear
4:53 PM 73.0 °F - 21.0 °F 14% 29.34 in 5.0 mi North 23.0 mph 40.3 mph N/A   Haze
5:00 PM 73.4 °F - 21.2 °F 14% 29.47 in 8.0 mi North 20.7 mph 39.1 mph N/A   Partly Cloudy
5:53 PM 66.9 °F - 28.0 °F 23% 29.39 in 10.0 mi NE 19.6 mph 34.5 mph N/A   Clear
6:53 PM 63.0 °F - 30.0 °F 29% 29.44 in 10.0 mi NE 25.3 mph - N/A   Clear
7:53 PM 57.9 °F - 30.9 °F 36% 29.46 in 10.0 mi ENE 15.0 mph - N/A   Clear
8:53 PM 53.1 °F - 30.9 °F 43% 29.50 in 10.0 mi ENE 10.4 mph - N/A   Clear
9:53 PM 51.1 °F - 32.0 °F 48% 29.55 in 10.0 mi NNE 9.2 mph - N/A   Clear
10:53 PM 48.0 °F - 30.9 °F 52% 29.59 in 10.0 mi North 12.7 mph - N/A   Clear
11:53 PM 45.0 °F 37.9 °F 32.0 °F 60% 29.64 in 10.0 mi NNE 16.1 mph - N/A   Clear